AEE7AJ LGTS-LGSA

Flight info

Callsign AEE7AJ
Flight time 0h 52m
Altitude 31000
Route LEKPO UL617 SKP UM749 ATV UP169 MANOK UL612 RUSOS
Aircraft A320/M-SDE3FGHIRWY/LB1

Departure

Time 2026-04-29 11:37
Airport Thessaloniki Macedonia International Airport (LGTS)

Arrival

Time 2026-04-29 12:29
Airport Chania International Airport (LGSA)
Time Latitude Longitude Altitude Speed Heading
2026-04-29 11:21 40.52322 22.97575 28 ft 0 kts 45°
2026-04-29 11:21 40.52318 22.97570 29 ft 0 kts 45°
2026-04-29 11:28 40.52318 22.97569 28 ft 1 kts 45°
2026-04-29 11:29 40.52301 22.97547 28 ft 4 kts 45°
2026-04-29 11:29 40.52282 22.97522 28 ft 4 kts 43°
2026-04-29 11:29 40.52262 22.97498 28 ft 4 kts 47°
2026-04-29 11:29 40.52248 22.97471 28 ft 4 kts 84°
2026-04-29 11:30 40.52252 22.97452 28 ft 3 kts 135°
2026-04-29 11:30 40.52262 22.97439 28 ft 3 kts 135°
2026-04-29 11:32 40.52254 22.97450 28 ft 3 kts 135°
2026-04-29 11:32 40.52247 22.97459 28 ft 5 kts 135°
2026-04-29 11:32 40.52218 22.97497 28 ft 11 kts 135°
2026-04-29 11:32 40.52163 22.97585 28 ft 17 kts 110°
2026-04-29 11:33 40.52101 22.97722 29 ft 19 kts 135°
2026-04-29 11:33 40.52029 22.97694 29 ft 14 kts 293°
2026-04-29 11:33 40.52060 22.97540 28 ft 21 kts 284°
2026-04-29 11:33 40.52098 22.97340 28 ft 24 kts 283°
2026-04-29 11:34 40.52159 22.97219 28 ft 14 kts 342°
2026-04-29 11:34 40.52258 22.97189 28 ft 15 kts 349°
2026-04-29 11:34 40.52370 22.97156 28 ft 17 kts 346°
2026-04-29 11:34 40.52492 22.97114 28 ft 19 kts 345°
2026-04-29 11:35 40.52628 22.97070 29 ft 21 kts 346°
2026-04-29 11:35 40.52779 22.97023 29 ft 23 kts 346°
2026-04-29 11:35 40.52945 22.96970 29 ft 26 kts 346°
2026-04-29 11:35 40.53078 22.96889 28 ft 15 kts 284°
2026-04-29 11:36 40.53029 22.96797 28 ft 17 kts 221°
2026-04-29 11:36 40.52903 22.96798 29 ft 26 kts 168°
2026-04-29 11:36 40.52490 22.96931 29 ft 94 kts 166°
2026-04-29 11:36 40.51672 22.97192 33 ft 145 kts 167°
2026-04-29 11:37 40.50668 22.97507 562 ft 149 kts 170°
2026-04-29 11:37 40.49664 22.97783 1289 ft 146 kts 168°
2026-04-29 11:37 40.48665 22.98043 1850 ft 152 kts 168°
2026-04-29 11:37 40.47557 22.98337 2130 ft 174 kts 168°
2026-04-29 11:38 40.46301 22.98682 2412 ft 195 kts 167°
2026-04-29 11:38 40.44900 22.99072 2747 ft 215 kts 167°
2026-04-29 11:38 40.43352 22.99507 3109 ft 240 kts 167°
2026-04-29 11:38 40.41667 22.99978 3791 ft 253 kts 168°
2026-04-29 11:39 40.39921 23.00467 4641 ft 260 kts 169°
2026-04-29 11:39 40.38150 23.00961 5477 ft 267 kts 169°
2026-04-29 11:39 40.36308 23.01477 6299 ft 274 kts 170°
2026-04-29 11:39 40.34455 23.02165 7121 ft 280 kts 162°
2026-04-29 11:40 40.32645 23.03151 8004 ft 284 kts 158°
2026-04-29 11:40 40.30848 23.04267 8858 ft 288 kts 156°
2026-04-29 11:40 40.29041 23.05431 9709 ft 291 kts 156°
2026-04-29 11:40 40.27198 23.06609 10304 ft 304 kts 156°
2026-04-29 11:41 40.25218 23.07845 10559 ft 326 kts 157°
2026-04-29 11:41 40.23159 23.09105 11073 ft 335 kts 157°
2026-04-29 11:41 40.21022 23.10394 11741 ft 341 kts 158°
2026-04-29 11:41 40.18851 23.11690 12426 ft 345 kts 158°
2026-04-29 11:42 40.16649 23.12996 13100 ft 350 kts 158°
2026-04-29 11:42 40.14414 23.14318 13771 ft 355 kts 158°
2026-04-29 11:42 40.12152 23.15658 14367 ft 359 kts 158°
2026-04-29 11:42 40.09849 23.16977 14954 ft 363 kts 160°
2026-04-29 11:43 40.07493 23.18201 15518 ft 366 kts 161°
2026-04-29 11:43 40.05093 23.19372 16101 ft 370 kts 162°
2026-04-29 11:43 40.02693 23.20512 16670 ft 374 kts 162°
2026-04-29 11:43 40.00236 23.21677 17254 ft 378 kts 162°
2026-04-29 11:44 39.97756 23.22863 17845 ft 381 kts 162°
2026-04-29 11:44 39.95256 23.24072 18410 ft 386 kts 162°
2026-04-29 11:44 39.92731 23.25306 18921 ft 389 kts 162°
2026-04-29 11:44 39.90188 23.26557 19447 ft 392 kts 162°
2026-04-29 11:45 39.87623 23.27821 19979 ft 395 kts 162°
2026-04-29 11:45 39.85039 23.29094 20516 ft 398 kts 162°
2026-04-29 11:45 39.82437 23.30374 21023 ft 401 kts 162°
2026-04-29 11:45 39.79849 23.31644 21514 ft 404 kts 162°
2026-04-29 11:46 39.77207 23.32936 21995 ft 407 kts 161°
2026-04-29 11:46 39.74551 23.34232 22495 ft 409 kts 161°
2026-04-29 11:46 39.71875 23.35538 22987 ft 412 kts 161°
2026-04-29 11:46 39.69180 23.36850 23474 ft 415 kts 161°
2026-04-29 11:47 39.66468 23.38169 23899 ft 418 kts 161°
2026-04-29 11:47 39.63736 23.39502 24298 ft 421 kts 161°
2026-04-29 11:47 39.60988 23.40844 24699 ft 423 kts 161°
2026-04-29 11:47 39.58226 23.42191 25097 ft 425 kts 161°
2026-04-29 11:48 39.56387 23.43087 25354 ft 427 kts 162°
2026-04-29 11:48 39.52693 23.44882 25895 ft 430 kts 161°
2026-04-29 11:48 39.49885 23.46242 26301 ft 432 kts 161°
2026-04-29 11:48 39.47063 23.47608 26689 ft 434 kts 161°
2026-04-29 11:49 39.44227 23.48977 27062 ft 436 kts 162°
2026-04-29 11:49 39.41374 23.50350 27433 ft 439 kts 161°
2026-04-29 11:49 39.38507 23.51735 27807 ft 441 kts 161°
2026-04-29 11:49 39.36601 23.52658 28052 ft 443 kts 161°
2026-04-29 11:50 39.32762 23.54516 28535 ft 446 kts 161°
2026-04-29 11:50 39.29850 23.55926 28914 ft 448 kts 161°
2026-04-29 11:50 39.26924 23.57341 29299 ft 450 kts 161°
2026-04-29 11:50 39.23980 23.58757 29684 ft 453 kts 161°
2026-04-29 11:51 39.21021 23.60178 30049 ft 455 kts 161°
2026-04-29 11:51 39.17998 23.61410 30361 ft 456 kts 169°
2026-04-29 11:51 39.15937 23.61904 30571 ft 455 kts 175°
2026-04-29 11:51 39.12783 23.62368 30865 ft 457 kts 176°
2026-04-29 11:52 39.09623 23.62834 30990 ft 455 kts 176°
2026-04-29 11:52 39.06535 23.63300 31006 ft 441 kts 175°
2026-04-29 11:52 38.99533 23.64345 31006 ft 433 kts 176°
2026-04-29 11:53 38.94561 23.65077 31002 ft 433 kts 176°
2026-04-29 11:53 38.88574 23.65959 30998 ft 433 kts 176°
2026-04-29 11:54 38.82595 23.66836 30997 ft 432 kts 175°
2026-04-29 11:54 38.75651 23.67860 30993 ft 432 kts 175°
2026-04-29 11:55 38.70645 23.68598 30995 ft 432 kts 175°
2026-04-29 11:55 38.64707 23.69470 30986 ft 432 kts 175°
2026-04-29 11:56 38.58740 23.70336 30986 ft 432 kts 175°
2026-04-29 11:56 38.52772 23.71202 30987 ft 432 kts 175°
2026-04-29 11:57 38.46806 23.72069 30990 ft 431 kts 175°
2026-04-29 11:57 38.40882 23.72922 30986 ft 431 kts 175°
2026-04-29 11:58 38.34921 23.73789 30986 ft 431 kts 175°
2026-04-29 11:58 38.28967 23.74656 30990 ft 431 kts 175°
2026-04-29 11:59 38.23013 23.75517 31000 ft 430 kts 175°
2026-04-29 11:59 38.17067 23.76377 30998 ft 430 kts 175°
2026-04-29 12:00 38.11163 23.77232 30993 ft 430 kts 175°
2026-04-29 12:00 38.05220 23.78092 30995 ft 430 kts 175°
2026-04-29 12:01 37.98314 23.79088 30992 ft 430 kts 175°
2026-04-29 12:01 37.93337 23.79805 31015 ft 429 kts 175°
2026-04-29 12:02 37.87446 23.80651 31015 ft 429 kts 175°
2026-04-29 12:02 37.81523 23.81593 31017 ft 429 kts 174°
2026-04-29 12:03 37.75607 23.82587 31007 ft 429 kts 174°
2026-04-29 12:03 37.69689 23.83557 31000 ft 429 kts 175°
2026-04-29 12:04 37.63809 23.84500 30998 ft 429 kts 175°
2026-04-29 12:04 37.57889 23.85440 30990 ft 429 kts 175°
2026-04-29 12:05 37.51971 23.86381 30987 ft 429 kts 175°
2026-04-29 12:05 37.46047 23.87329 30984 ft 429 kts 175°
2026-04-29 12:06 37.40156 23.88270 30982 ft 430 kts 175°
2026-04-29 12:06 37.34220 23.89211 30994 ft 430 kts 175°
2026-04-29 12:07 37.28281 23.90153 30987 ft 430 kts 176°
2026-04-29 12:07 37.22337 23.91100 30985 ft 431 kts 176°
2026-04-29 12:08 37.19362 23.91572 30868 ft 430 kts 176°
2026-04-29 12:08 37.16457 23.92034 30532 ft 423 kts 176°
2026-04-29 12:08 37.13558 23.92497 30219 ft 416 kts 176°
2026-04-29 12:08 37.10707 23.92952 29862 ft 410 kts 176°
2026-04-29 12:09 37.07891 23.93401 29498 ft 406 kts 176°
2026-04-29 12:09 37.05096 23.93843 29120 ft 404 kts 176°
2026-04-29 12:09 37.02311 23.94280 28761 ft 403 kts 176°
2026-04-29 12:09 36.99539 23.94714 28411 ft 400 kts 176°
2026-04-29 12:10 36.96780 23.95145 28066 ft 398 kts 176°
2026-04-29 12:10 36.94040 23.95576 27723 ft 396 kts 176°
2026-04-29 12:10 36.91315 23.96005 27384 ft 394 kts 176°
2026-04-29 12:10 36.88641 23.96425 27054 ft 392 kts 176°
2026-04-29 12:11 36.85946 23.96849 26723 ft 389 kts 176°
2026-04-29 12:11 36.83264 23.97271 26384 ft 388 kts 176°
2026-04-29 12:11 36.80588 23.97693 26065 ft 387 kts 176°
2026-04-29 12:11 36.77922 23.98110 25745 ft 385 kts 176°
2026-04-29 12:12 36.75269 23.98522 25422 ft 383 kts 176°
2026-04-29 12:12 36.72630 23.98931 25113 ft 381 kts 176°
2026-04-29 12:12 36.70002 23.99342 24803 ft 380 kts 176°
2026-04-29 12:12 36.67420 23.99748 24500 ft 378 kts 176°
2026-04-29 12:13 36.64820 24.00157 24201 ft 376 kts 176°
2026-04-29 12:13 36.62228 24.00564 23900 ft 374 kts 176°
2026-04-29 12:13 36.59649 24.00967 23578 ft 373 kts 176°
2026-04-29 12:13 36.57079 24.01367 23218 ft 371 kts 176°
2026-04-29 12:14 36.54521 24.01767 22873 ft 369 kts 176°
2026-04-29 12:14 36.51980 24.02164 22526 ft 367 kts 176°
2026-04-29 12:14 36.49453 24.02559 22187 ft 365 kts 176°
2026-04-29 12:14 36.46938 24.02950 21846 ft 363 kts 176°
2026-04-29 12:15 36.44436 24.03284 21481 ft 359 kts 182°
2026-04-29 12:15 36.41956 24.03194 20526 ft 366 kts 186°
2026-04-29 12:15 36.39400 24.02999 19747 ft 368 kts 187°
2026-04-29 12:15 36.36850 24.02774 19102 ft 366 kts 187°
2026-04-29 12:16 36.34321 24.02544 18506 ft 363 kts 187°
2026-04-29 12:16 36.31814 24.02326 17848 ft 360 kts 187°
2026-04-29 12:16 36.29327 24.02119 17181 ft 357 kts 186°
2026-04-29 12:16 36.26860 24.01921 16532 ft 354 kts 186°
2026-04-29 12:17 36.24413 24.01728 15898 ft 351 kts 186°
2026-04-29 12:17 36.21986 24.01538 15284 ft 348 kts 186°
2026-04-29 12:17 36.19607 24.01352 14696 ft 346 kts 185°
2026-04-29 12:17 36.17212 24.01166 14115 ft 343 kts 185°
2026-04-29 12:18 36.14837 24.00981 13499 ft 341 kts 185°
2026-04-29 12:18 36.12478 24.00800 12887 ft 338 kts 185°
2026-04-29 12:18 36.10136 24.00621 12297 ft 335 kts 185°
2026-04-29 12:18 36.07817 24.00439 11739 ft 332 kts 185°
2026-04-29 12:19 36.05560 24.00259 11553 ft 318 kts 185°
2026-04-29 12:19 36.03384 24.00085 11193 ft 311 kts 185°
2026-04-29 12:19 36.01240 23.99915 10750 ft 307 kts 185°
2026-04-29 12:19 35.99142 23.99751 10303 ft 305 kts 184°
2026-04-29 12:20 35.97028 23.99585 9842 ft 303 kts 184°
2026-04-29 12:20 35.94931 23.99419 9355 ft 301 kts 184°
2026-04-29 12:20 35.92851 23.99258 8879 ft 298 kts 184°
2026-04-29 12:20 35.90787 23.99100 8403 ft 295 kts 184°
2026-04-29 12:21 35.88747 23.98943 7812 ft 292 kts 184°
2026-04-29 12:21 35.86726 23.98785 7244 ft 291 kts 184°
2026-04-29 12:21 35.84719 23.98629 6759 ft 288 kts 183°
2026-04-29 12:21 35.82766 23.98481 6437 ft 282 kts 183°
2026-04-29 12:22 35.80822 23.98335 6031 ft 279 kts 183°
2026-04-29 12:22 35.78893 23.98187 5595 ft 277 kts 183°
2026-04-29 12:22 35.76964 23.98038 5028 ft 280 kts 183°
2026-04-29 12:22 35.75017 23.97884 4565 ft 278 kts 183°
2026-04-29 12:23 35.73097 23.97732 4200 ft 276 kts 183°
2026-04-29 12:23 35.71189 23.97584 3853 ft 270 kts 182°
2026-04-29 12:23 35.69389 23.97445 3773 ft 249 kts 181°
2026-04-29 12:23 35.67720 23.97315 3679 ft 240 kts 181°
2026-04-29 12:24 35.66061 23.97185 3575 ft 239 kts 181°
2026-04-29 12:24 35.64407 23.97058 3474 ft 238 kts 181°
2026-04-29 12:24 35.62776 23.96933 3367 ft 230 kts 181°
2026-04-29 12:24 35.61219 23.96813 3267 ft 219 kts 180°
2026-04-29 12:25 35.59785 23.97115 3181 ft 203 kts 150°
2026-04-29 12:25 35.58724 23.98188 2991 ft 196 kts 123°
2026-04-29 12:25 35.57691 24.01122 2422 ft 175 kts 110°
2026-04-29 12:26 35.57260 24.02432 2209 ft 154 kts 111°
2026-04-29 12:26 35.56882 24.03580 1994 ft 142 kts 111°
2026-04-29 12:26 35.56505 24.04707 1788 ft 143 kts 112°
2026-04-29 12:26 35.56122 24.05819 1683 ft 139 kts 112°
2026-04-29 12:27 35.55777 24.06924 1523 ft 138 kts 109°
2026-04-29 12:27 35.55445 24.08054 1346 ft 142 kts 111°
2026-04-29 12:27 35.55073 24.09166 1206 ft 140 kts 111°
2026-04-29 12:27 35.54712 24.10275 1047 ft 140 kts 111°
2026-04-29 12:28 35.54344 24.11380 886 ft 140 kts 111°
2026-04-29 12:28 35.53991 24.12470 684 ft 139 kts 112°
2026-04-29 12:28 35.53630 24.13564 516 ft 136 kts 112°
2026-04-29 12:28 35.53326 24.14497 494 ft 95 kts 112°
2026-04-29 12:29 35.53124 24.15116 486 ft 64 kts 112°
2026-04-29 12:29 35.52979 24.15564 490 ft 49 kts 111°
2026-04-29 12:29 35.52884 24.15860 487 ft 23 kts 114°
2026-04-29 12:29 35.52945 24.15954 495 ft 15 kts 22°
2026-04-29 12:30 35.53038 24.15960 492 ft 9 kts 294°
2026-04-29 12:30 35.53063 24.15873 488 ft 13 kts 291°
2026-04-29 12:30 35.53097 24.15763 494 ft 15 kts 291°
2026-04-29 12:30 35.53142 24.15628 491 ft 20 kts 293°
2026-04-29 12:31 35.53198 24.15458 491 ft 23 kts 291°
2026-04-29 12:31 35.53260 24.15265 496 ft 26 kts 291°
2026-04-29 12:31 35.53327 24.15052 493 ft 28 kts 291°
2026-04-29 12:31 35.53404 24.14823 489 ft 30 kts 292°
2026-04-29 12:32 35.53484 24.14576 494 ft 32 kts 291°
2026-04-29 12:32 35.53564 24.14329 498 ft 27 kts 293°
2026-04-29 12:32 35.53617 24.14166 493 ft 20 kts 291°
2026-04-29 12:32 35.53650 24.14069 498 ft 7 kts 292°
2026-04-29 12:33 35.53670 24.14008 491 ft 9 kts 292°
2026-04-29 12:33 35.53699 24.13975 490 ft 7 kts 357°
2026-04-29 12:33 35.53766 24.14005 496 ft 12 kts 21°
2026-04-29 12:33 35.53816 24.13940 493 ft 12 kts 290°
2026-04-29 12:34 35.53864 24.13931 493 ft 9 kts 23°
2026-04-29 12:34 35.53907 24.13953 498 ft 2 kts 22°
2026-04-29 12:34 35.53913 24.13956 498 ft 0 kts 21°